When you browse on this site, cookies collect data to enhance your experience and personalize the content and advertising you see.
Visit our Privacy Policy to learn more. By continuing to use the site, you agree to this use of cookies and data.
  • In Italy
  • List of Countries
  • For 7 days
  • Water Temperature
  • Satellite Maps
  • Weather Map
  • Weather Widgets
  • user-avatar
    Login

    Hourly Weather Satif

    Today, 24 June, Monday

    Time Temperature Precipitation Wind Pressure Humidity
    00:00 +29°C° 0 mm 4 mps 674 mmHg 14%
    01:00 +29°C° 0 mm 4 mps 673 mmHg 14%
    02:00 +28°C° 0 mm 4 mps 673 mmHg 15%
    03:00 +28°C° 0 mm 4 mps 673 mmHg 16%
    04:00 +28°C° 0 mm 4 mps 673 mmHg 16%
    05:00 +29°C° 0 mm 4 mps 674 mmHg 16%
    06:00 +30°C° 0 mm 4 mps 674 mmHg 16%
    07:00 +33°C° 0 mm 5 mps 675 mmHg 14%
    08:00 +35°C° 0 mm 7 mps 675 mmHg 12%
    09:00 +38°C° 0 mm 9 mps 676 mmHg 10%
    10:00 +39°C° 0 mm 8 mps 676 mmHg 10%
    11:00 +40°C° 0 mm 8 mps 676 mmHg 9%
    12:00 +40°C° 0 mm 8 mps 677 mmHg 8%
    13:00 +40°C° 0 mm 8 mps 676 mmHg 8%
    14:00 +40°C° 0 mm 8 mps 676 mmHg 8%
    15:00 +40°C° 0 mm 8 mps 676 mmHg 8%
    16:00 +40°C° 0 mm 7 mps 676 mmHg 8%
    17:00 +39°C° 0 mm 6 mps 676 mmHg 8%
    18:00 +37°C° 0 mm 5 mps 676 mmHg 8%
    19:00 +35°C° 0 mm 4 mps 675 mmHg 9%
    20:00 +34°C° 0 mm 4 mps 675 mmHg 10%
    21:00 +31°C° 0 mm 3 mps 675 mmHg 11%
    22:00 +30°C° 0 mm 3 mps 675 mmHg 11%
    23:00 +29°C° 0 mm 3 mps 674 mmHg 12%

    Tomorrow, 25 June, Tuesday

    Time Temperature Precipitation Wind Pressure Humidity
    00:00 +29°C° 0 mm 3 mps 674 mmHg 13%
    01:00 +28°C° 0 mm 3 mps 674 mmHg 14%
    02:00 +27°C° 0 mm 3 mps 674 mmHg 14%
    03:00 +27°C° 0 mm 3 mps 674 mmHg 15%
    04:00 +28°C° 0 mm 2 mps 674 mmHg 15%
    05:00 +29°C° 0 mm 2 mps 675 mmHg 15%
    06:00 +30°C° 0 mm 2 mps 675 mmHg 15%
    07:00 +33°C° 0 mm 3 mps 676 mmHg 13%
    08:00 +35°C° 0 mm 5 mps 677 mmHg 11%
    09:00 +38°C° 0 mm 6 mps 678 mmHg 9%
    10:00 +39°C° 0 mm 6 mps 678 mmHg 9%
    11:00 +40°C° 0 mm 6 mps 678 mmHg 8%
    12:00 +40°C° 0 mm 6 mps 678 mmHg 8%
    13:00 +40°C° 0 mm 6 mps 678 mmHg 8%
    14:00 +40°C° 0 mm 6 mps 678 mmHg 8%
    15:00 +41°C° 0 mm 6 mps 677 mmHg 8%
    16:00 +40°C° 0 mm 6 mps 677 mmHg 9%
    17:00 +39°C° 0 mm 5 mps 677 mmHg 10%
    18:00 +37°C° 0 mm 4 mps 677 mmHg 11%
    19:00 +35°C° 0 mm 4 mps 677 mmHg 13%
    20:00 +33°C° 0 mm 3 mps 677 mmHg 16%
    21:00 +30°C° 0 mm 2 mps 677 mmHg 19%
    22:00 +29°C° 0 mm 2 mps 676 mmHg 20%
    23:00 +29°C° 0 mm 2 mps 676 mmHg 21%

    Day after tomorrow, 26 June, Wednesday

    Time Temperature Precipitation Wind Pressure Humidity
    00:00 +28°C° 0 mm 2 mps 676 mmHg 22%
    01:00 +27°C° 0 mm 2 mps 675 mmHg 24%
    02:00 +26°C° 0 mm 1 mps 675 mmHg 25%
    03:00 +25°C° 0 mm 1 mps 675 mmHg 26%
    04:00 +27°C° 0 mm 1 mps 675 mmHg 24%
    05:00 +29°C° 0 mm 1 mps 676 mmHg 22%
    06:00 +30°C° 0 mm 1 mps 677 mmHg 20%
    07:00 +32°C° 0 mm 1 mps 677 mmHg 17%
    08:00 +35°C° 0 mm 2 mps 678 mmHg 14%
    09:00 +37°C° 0 mm 2 mps 678 mmHg 11%
    10:00 +38°C° 0 mm 2 mps 679 mmHg 10%
    11:00 +37°C° 0 mm 1 mps 679 mmHg 10%
    12:00 +39°C° 0 mm 1 mps 679 mmHg 9%
    13:00 +39°C° 0 mm 3 mps 678 mmHg 10%
    14:00 +40°C° 0 mm 5 mps 678 mmHg 10%
    15:00 +40°C° 0 mm 7 mps 678 mmHg 11%
    16:00 +39°C° 0 mm 5 mps 677 mmHg 12%
    17:00 +37°C° 0 mm 4 mps 677 mmHg 13%
    18:00 +36°C° 0 mm 3 mps 677 mmHg 14%
    19:00 +34°C° 0 mm 3 mps 677 mmHg 16%
    20:00 +31°C° 0 mm 2 mps 676 mmHg 18%
    21:00 +29°C° 0 mm 2 mps 676 mmHg 20%
    22:00 +28°C° 0 mm 1 mps 676 mmHg 22%
    23:00 +27°C° 0 mm 1 mps 676 mmHg 24%

    27 June, Thursday

    Time Temperature Precipitation Wind Pressure Humidity
    00:00 +26°C° 0 mm 1 mps 675 mmHg 26%
    01:00 +25°C° 0 mm 1 mps 675 mmHg 27%
    02:00 +25°C° 0 mm 1 mps 675 mmHg 28%
    03:00 +22°C° 0 mm 0 mps 674 mmHg 28%
    04:00 +24°C° 0 mm 0 mps 675 mmHg 27%
    05:00 +25°C° 0 mm 0 mps 675 mmHg 25%
    06:00 +27°C° 0 mm 0 mps 676 mmHg 23%
    07:00 +31°C° 0 mm 1 mps 676 mmHg 20%
    08:00 +32°C° 0 mm 1 mps 677 mmHg 17%
    09:00 +34°C° 0 mm 1 mps 677 mmHg 13%
    10:00 +36°C° 0 mm 3 mps 677 mmHg 12%
    11:00 +37°C° 0 mm 4 mps 677 mmHg 11%
    12:00 +39°C° 0 mm 6 mps 677 mmHg 10%
    13:00 +38°C° 0 mm 6 mps 677 mmHg 11%
    14:00 +38°C° 0 mm 7 mps 676 mmHg 12%
    15:00 +38°C° 0 mm 7 mps 676 mmHg 13%
    16:00 +35°C° 0 mm 7 mps 675 mmHg 16%
    17:00 +33°C° 0 mm 6 mps 675 mmHg 20%
    18:00 +30°C° 0 mm 6 mps 675 mmHg 24%
    19:00 +29°C° 0 mm 5 mps 675 mmHg 28%
    20:00 +27°C° 0 mm 3 mps 675 mmHg 33%
    21:00 +25°C° 0 mm 2 mps 675 mmHg 37%
    22:00 +25°C° 0 mm 2 mps 674 mmHg 39%
    23:00 +24°C° 0 mm 1 mps 674 mmHg 41%

    28 June, Friday

    Time Temperature Precipitation Wind Pressure Humidity
    00:00 +23°C° 0 mm 1 mps 674 mmHg 43%
    01:00 +23°C° 0 mm 1 mps 673 mmHg 44%
    02:00 +22°C° 0 mm 1 mps 673 mmHg 45%
    03:00 +22°C° 0 mm 1 mps 673 mmHg 46%
    04:00 +23°C° 0 mm 1 mps 673 mmHg 44%
    05:00 +24°C° 0 mm 1 mps 673 mmHg 42%
    06:00 +25°C° 0 mm 1 mps 673 mmHg 39%
    07:00 +27°C° 0 mm 1 mps 674 mmHg 36%
    08:00 +28°C° 0 mm 1 mps 674 mmHg 33%
    09:00 +28°C° 0 mm 0 mps 675 mmHg 30%
    10:00 +31°C° 0 mm 1 mps 675 mmHg 27%
    11:00 +32°C° 0 mm 1 mps 675 mmHg 24%
    12:00 +33°C° 0 mm 1 mps 675 mmHg 20%
    13:00 +34°C° 0 mm 2 mps 675 mmHg 20%
    14:00 +35°C° 0 mm 3 mps 674 mmHg 19%
    15:00 +35°C° 0 mm 4 mps 674 mmHg 19%
    16:00 +34°C° 0 mm 4 mps 674 mmHg 22%
    17:00 +33°C° 0 mm 5 mps 674 mmHg 26%
    18:00 +32°C° 0 mm 5 mps 673 mmHg 29%
    19:00 +29°C° 0 mm 4 mps 673 mmHg 34%
    20:00 +28°C° 0 mm 3 mps 673 mmHg 38%
    21:00 +26°C° 0 mm 2 mps 673 mmHg 43%
    22:00 +26°C° 0 mm 2 mps 673 mmHg 44%
    23:00 +25°C° 0 mm 1 mps 672 mmHg 46%

    29 June, Saturday

    Time Temperature Precipitation Wind Pressure Humidity
    00:00 +24°C° 0 mm 1 mps 672 mmHg 47%
    01:00 +24°C° 0 mm 1 mps 672 mmHg 48%
    02:00 +23°C° 0 mm 1 mps 671 mmHg 49%
    03:00 +23°C° 0 mm 1 mps 671 mmHg 49%
    04:00 +24°C° 0 mm 1 mps 671 mmHg 47%
    05:00 +25°C° 0 mm 1 mps 672 mmHg 44%
    06:00 +25°C° 0 mm 1 mps 672 mmHg 42%
    07:00 +27°C° 0 mm 1 mps 673 mmHg 37%
    08:00 +29°C° 0 mm 1 mps 674 mmHg 31%
    09:00 +31°C° 0 mm 1 mps 674 mmHg 26%
    10:00 +32°C° 0 mm 2 mps 674 mmHg 23%
    11:00 +35°C° 0 mm 2 mps 674 mmHg 19%
    12:00 +36°C° 0 mm 3 mps 674 mmHg 16%
    13:00 +36°C° 0 mm 3 mps 674 mmHg 16%
    14:00 +36°C° 0 mm 4 mps 674 mmHg 16%
    15:00 +36°C° 0 mm 5 mps 674 mmHg 16%
    16:00 +35°C° 0 mm 5 mps 673 mmHg 17%
    17:00 +35°C° 0 mm 5 mps 673 mmHg 19%
    18:00 +34°C° 0 mm 5 mps 673 mmHg 21%
    19:00 +32°C° 0 mm 4 mps 673 mmHg 23%
    20:00 +29°C° 0 mm 3 mps 673 mmHg 26%
    21:00 +28°C° 0 mm 2 mps 673 mmHg 29%
    22:00 +27°C° 0 mm 2 mps 673 mmHg 30%
    23:00 +27°C° 0 mm 2 mps 672 mmHg 31%
    Show more